Regional Weather Roundup
Issued by NWS

Home | Current Version | Previous Version | Graphics & Text | Print | Product List | Glossary On
Versions: 1 2 3 4 5 6 7 8 9 10 11 12 13 14 15 16 17 18 19 20 21 22 23 24 25 26 27 28 29 30 31 32 33 34 35 36 37 38 39 40 41 42 43 44 45 46 47 48 49 50
000
ASUS45 KBOU 261607
RWRCO

WEATHER ROUNDUP FOR COLORADO
NATIONAL WEATHER SERVICE DENVER/BOULDER CO
1000 AM MDT MON JUN 26 2017

NOTE: "FAIR" INDICATES FEW OR NO CLOUDS BELOW 12000 FEET WITH NO
SIGNIFICANT WEATHER AND/OR OBSTRUCTIONS TO VISIBILITY.

COZ001>005-013-030-031-261700-
...NORTHWEST COLORADO...

CITY           SKY/WX    TMP DP  RH WIND       PRES   REMARKS
CRAIG          FAIR      74  33  22 NE9       30.30F
HAYDEN         FAIR      68  36  30 E6        30.33F
MEEKER         FAIR      71  33  24 CALM      30.30F
RABBIT EARS PA FAIR      57  32  38 E3        30.59F
STEAMBOAT SPGS FAIR      63  40  41 CALM      30.34F
WALDEN         FAIR      61  32  33 CALM      30.45F
$$

COZ006>008-011-261700-
...WEST CENTRAL VALLEYS...

CITY           SKY/WX    TMP DP  RH WIND       PRES   REMARKS
GRAND JUNCTION FAIR      80  30  16 SE12      30.18F
MONTROSE       FAIR      77  35  21 S3        30.26F
EAGLE          SUNNY     64  34  32 S5        30.38F
RIFLE          FAIR      74  35  24 VRB5      30.25F
DELTA          FAIR      76  32  20 CALM      30.23F
NUCLA          NOT AVBL
$$

COZ017>023-064>068-261700-
...SOUTHWEST COLORADO...

CITY           SKY/WX    TMP DP  RH WIND       PRES   REMARKS
DURANGO        FAIR      71  42  35 SE9       30.35F
CORTEZ         FAIR      77  43  29 CALM      30.27F
PAGOSA SPRINGS FAIR      69  38  32 SW6       30.43F
TELLURIDE      FAIR      71  31  23 CALM      30.50F
WOLF CREEK PAS FAIR      55  36  47 CALM      30.75S
$$

COZ009-010-012-014-032>034-037-058>063-261700-
...CENTRAL COLORADO...

CITY           SKY/WX    TMP DP  RH WIND       PRES   REMARKS
ASPEN          FAIR      68  33  27 NE7       30.39F
BUENA VISTA    FAIR      64  45  49 CALM      30.44F
COPPER MTN     FAIR      59  23  25 CALM      30.70F
BERTHOUD PASS  FAIR      45  32  61 NW6       30.73S
COTTONWOOD PAS FAIR      63  45  51 E6        30.57F
GUNNISON       FAIR      65  42  43 CALM      30.43F
KREMMLING      NOT AVBL
LEADVILLE      FAIR      59  36  42 VRB3      30.55F
MONARCH PASS   FAIR      54  36  50 SW13      30.80F
SALIDA         FAIR      69  50  50 N5        30.49F
SUNLIGHT       FAIR      55  28  35 CALM      30.64S
WILKERSON PASS FAIR      50  41  71 SW3       30.68F
$$

COZ069>075-261700-
...SAN LUIS VALLEY/SANGRE DE CRISTO MOUNTAINS...

CITY           SKY/WX    TMP DP  RH WIND       PRES   REMARKS
ALAMOSA        FAIR      65  47  52 VRB6      30.43F
DEL NORTE      FAIR      64  47  54 E10       30.46F
LA VETA PASS   FAIR      57  45  62 MISG      30.69S
SAGUACHE       FAIR      64  46  52 S8        30.46F
$$

COZ035-036-038>040-261700-
...NORTHERN COLORADO FRONT RANGE...

CITY           SKY/WX    TMP DP  RH WIND       PRES   REMARKS
DENVER INTL AP FAIR      71  52  50 VRB6      30.27F
DMNS CITY PARK   N/A     71  53  53 N9G16     30.27S
AURORA         MOSUNNY   69  53  55 NW7       30.29S
FRONT RANGE AP FAIR      73  52  46 N7        30.28F
ERIE MUNI ARPT FAIR      68  55  62 NE3       30.27F
BOULDER MUN AP FAIR      68  50  52 CALM      30.27F
CENTENNIAL     FAIR      73  51  46 N6        30.29F
BROOMFIELD     FAIR      68  54  60 N7        30.29F
FORT COLLINS   FAIR      72  52  49 CALM      30.26F
LONGMONT       FAIR      73  53  48 CALM      30.27F
$$

COZ041-046-047-076>085-087-088-261700-
...PIKES PEAK/PALMER DIVIDE AND SOUTHERN FOOTHILLS...

CITY           SKY/WX    TMP DP  RH WIND       PRES   REMARKS
COLO. SPRINGS  FAIR      65  58  78 CALM      30.34F
A. F. ACADEMY  FAIR      66  56  68 S3        30.34F
SCHRIEVER AFB  PTSUNNY   63  58  84 SW9       30.34F
CHEYENNE MTN   FAIR      64  59  83 SE7       30.32F
ELLICOTT       FAIR     N/A N/A N/A W10       30.32F
FALCON           N/A     66  54  65 W5        30.38F
FORT CARSON    PTSUNNY   68  58  70 E6        30.31F
LIMON          FAIR      74  55  51 S12       30.27F
MONUMENT HILL  FAIR      72  34  25 S5        30.37F
CANON CITY     SUNNY     73  61  64 W3        30.28F
WALSENBURG     PTSUNNY   70  59  68 SE6       30.33F
TRINIDAD       FAIR      68  53  58 W8        30.33F
$$

COZ042>045-048>051-090-091-261700-
...NORTHEAST COLORADO...

CITY           SKY/WX    TMP DP  RH WIND       PRES   REMARKS
GREELEY ARPT   FAIR      70  58  65 CALM      30.25F
AKRON          FAIR      75  53  46 SE3       30.24F
BURLINGTON     FAIR      73  61  65 W7        30.24F
WRAY           FAIR      75  59  57 CALM      30.22S
YUMA           FAIR      72  52  49 CALM      30.22F
STERLING       FAIR      70  59  68 CALM      30.21F
HOLYOKE        NOT AVBL
FORT MORGAN    FAIR      74  55  51 CALM      30.24F
$$

COZ086-089-092>099-261700-
...SOUTHEAST COLORADO...

CITY           SKY/WX    TMP DP  RH WIND       PRES   REMARKS
PUEBLO         FAIR      72  59  63 CALM      30.26F
LA JUNTA       PTSUNNY   72  59  63 NW8       30.25F
LAMAR          FAIR      72  59  63 VRB6      30.21F
SPRINGFIELD      N/A     76  58  53 NW7       30.24F
$$



USA.gov is the U.S. government's official web portal to all federal, state and local government web resources and services.